Regional Weather Roundup
Issued by NWS

Home | Current Version | Previous Version | Text Only | Print | Product List | Glossary On
Versions: 1 2 3 4 5 6 7 8 9 10 11 12 13 14 15 16 17 18 19 20 21 22 23 24 25 26 27 28 29 30 31 32 33 34 35 36 37 38 39 40 41 42 43 44 45 46 47 48 49 50
000
ASUS43 KDTX 291410
RWRMI
MICHIGAN HOURLY REGIONAL WEATHER ROUNDUP
NATIONAL WEATHER SERVICE DETROIT/PONTIAC MI
900 AM EST THU JAN 29 2015

NOTE: "FAIR" INDICATES FEW OR NO CLOUDS BELOW 12,000 FEET WITH NO
SIGNIFICANT WEATHER AND/OR OBSTRUCTION TO VISIBILITY.

MIZ047>049-052>055-059>063-066>070-074>076-081>083-291500-
SOUTHEAST LOWER MICHIGAN

CITY           SKY/WX    TMP DP  RH WIND       PRES   REMARKS
ADRIAN         CLOUDY    30  24  78 S5        29.77F WCI  25
ALMA           CLOUDY    28  24  86 CALM      29.76R
ANN ARBOR      CLOUDY    29  24  82 SE5       29.77F WCI  24
BAD AXE        LGT SNOW  26  21  81 S12       29.80S WCI  16
CARO           FLURRIES  27  20  75 SE7       29.77S WCI  20
DETROIT CITY   CLOUDY    32  21  64 S6        29.80F WCI  26
DETROIT        CLOUDY    30  22  72 SE5       29.80F WCI  25
FLINT          CLOUDY    31  21  66 S10       29.76F WCI  22
GROSSE ILE     CLOUDY    30  25  80 SE9       29.78F WCI  22
HILLSDALE      CLOUDY    30  26  86 S5        29.73F WCI  25
HOWELL         CLOUDY    28  24  82 S12       29.75S WCI  18

CITY           SKY/WX    TMP DP  RH WIND       PRES   REMARKS
JACKSON        CLOUDY    30  24  78 S7        29.74F WCI  23
LAMBERTVILLE   CLOUDY    34  25  69 S5        29.78F WCI  30
LANSING        CLOUDY    30  24  78 S9        29.74F WCI  22
LAPEER         CLOUDY    27  21  80 SE6       29.78F WCI  20
MASON          CLOUDY    29  23  78 S9        29.74F WCI  21
MONROE         CLOUDY    34  25  69 S7        29.77F WCI  28
MT. CLEMENS    CLOUDY    28  23  80 SE7       29.78F WCI  21
PONTIAC        CLOUDY    28  20  71 SE8       29.77S WCI  20
PORT HOPE        N/A     25  22  88 S12       29.78F WCI  14
PORT HURON     CLOUDY    30  18  59 SE9       29.81F WCI  22
TRI CITIES     CLOUDY    29  23  78 SE3       29.77F
TROY           CLOUDY    32  20  62 SE3       29.81F
SAGINAW HB     LGT SNOW  30  25  80 S5        29.77S WCI  25
$$
MIZ043>046-050>051-056>058-064>065-071>073-077>080-291500-
SOUTHWEST LOWER MICHIGAN

CITY           SKY/WX    TMP DP  RH WIND       PRES   REMARKS
BATTLE CREEK   CLOUDY    34  24  67 S5        29.73S WCI  30
BENTON HARBOR  CLOUDY    33  27  78 CALM      29.73R
BIG RAPIDS     LGT SNOW  26  25  96 CALM      29.74S
COLDWATER      CLOUDY    32  26  77 S6        29.73S WCI  26
FREMONT        CLOUDY    28  24  87 CALM      29.75R
HOLLAND        CLOUDY    33  27  78 CALM      29.74R
GRAND RAPIDS   FRZ RAIN  30  27  88 NE3       29.74R FOG
IONIA          CLOUDY    31  27  87 CALM      29.73R
KALAMAZOO      CLOUDY    33  24  69 S6        29.72F WCI  28
LUDINGTON      CLOUDY    31  27  87 CALM      29.78R FOG
MARSHALL       CLOUDY    32  25  74 SE3       29.73S
MOUNT PLEASANT CLOUDY    26  24  90 CALM      29.76S
MUSKEGON       LGT SNOW  31  25  78 CALM      29.76R
SOUTH HAVEN    CLOUDY    33  29  86 CALM      29.73R
$$
MIZ016>042-291500-
NORTHERN LOWER MICHIGAN

CITY           SKY/WX    TMP DP  RH WIND       PRES   REMARKS
ALPENA         HVY SNOW  23  21  92 S6        29.78F VSB 1/4 WCI  16
BEAVER ISLAND  SNOW      27  26  96 CALM      29.78R VSB 1/2
BELLAIRE       CLOUDY    26  24  92 CALM      29.79R FOG
CADILLAC       LGT SNOW  23  21  92 CALM      29.73S
CHARLEVOIX     LGT SNOW  25  23  91 S3        29.81S
FRANKFORT      LGT SNOW  27  25  91 CALM      29.78R
GAYLORD        CLOUDY    22  21  96 S5        29.74R FOG     WCI  16
GRAYLING       LGT SNOW  23  22  96 CALM      29.76R VSB 1
HARBOR SPRINGS LGT SNOW  25  23  91 CALM      29.78R
HOUGHTON LAKE  LGT SNOW  23  20  88 CALM      29.75S FOG
MANISTEE       CLOUDY    27  23  86 CALM      29.78R
OSCODA         LGT SNOW  25  24  93 S6        29.78F VSB 3/4 WCI  18
PELLSTON       LGT SNOW  25  22  88 CALM      29.79R FOG
ROGERS CITY    LGT SNOW  23  23  99 CALM      29.79S
TRAVERSE CITY  CLOUDY    26  22  84 NW3       29.77R FOG
$$
MIZ007>008-015-291500-
EASTERN UPPER MICHIGAN

CITY           SKY/WX    TMP DP  RH WIND       PRES   REMARKS
KINROSS        CLOUDY    25  21  86 CALM      29.77S
MACKINAC ISLAN LGT SNOW  25  23  93 S6        29.77S VSB 1   WCI  18
NEWBERRY       CLOUDY    23  22  98 S3        29.76R
S. S. MARIE    LGT SNOW  24  22  91 CALM      29.78R VSB 1
MUNISING         N/A     31  26  82 NW7       29.78R WCI  24
$$
MIZ004>006-011>014-085-291500-
CENTRAL UPPER MICHIGAN

CITY           SKY/WX    TMP DP  RH WIND       PRES   REMARKS
MANISTIQUE     CLOUDY    29  29  97 NW6       29.77R FOG     WCI  23
ESCANABA       CLOUDY    28  25  86 NW10      29.80R WCI  19
MENOMINEE      CLOUDY    28  25  86 NW8       29.81R WCI  20
SAWYER-GWINN   CLOUDY    28  25  86 N13       29.78R WCI  18
$$
MIZ001>003-009>011-084-291500-
WESTERN UPPER MICHIGAN

CITY           SKY/WX    TMP DP  RH WIND       PRES   REMARKS
IRON MOUNTAIN  CLOUDY    28  25  88 NW14      29.80R WCI  17
HOUGHTON       CLOUDY    29  23  78 NW18      29.83R WCI  16
COPPER HARBOR    N/A     31  25  78 NE28G38   29.82R WCI  17
IRONWOOD       CLOUDY    28  25  86 NW17G23   29.91R WCI  16
$$

ABBREVIATIONS USED IN REMARKS
   TC - TEMPERATURE IN CELSIUS
  WCI - WIND CHILL INDEX
   HX - HEAT INDEX
  VSB - VISIBILITY



USA.gov is the U.S. government's official web portal to all federal, state and local government web resources and services.